Flight Track Log - Related Links

Times and Time Zones

All times are in EDT time to prevent confusion due to time zone crossing. See the FLG4222 flight status page for this flight to view local times or setup timezone preferences in your user account.

Time Position Orientation Groundspeed Altitude Reporting Facility
EDT Latitude Longitude Course Direction KTS MPH feet Rate Location/Type
Thu 11:39:26 AM 42.2814 -76.1717 290° West 246 283 7,400  Level New York Center
Thu 11:40:25 AM 42.3136 -76.2864 291° West 278 320 9,400 1,983 Climbing New York Center
Thu 11:41:21 AM 42.3431 -76.3875 292° West 298 343 11,200 1,322 Climbing Cleveland Center
Thu 11:42:23 AM 42.3756 -76.5122 289° West 345 397 12,000 384 Climbing Cleveland Center
Thu 11:43:26 AM 42.4147 -76.6517 291° West 362 417 12,000 290 Level New York Center
Thu 11:45:29 AM 42.4889 -76.9267 290° West 394 453 12,900 843 Climbing Cleveland Center
Thu 11:46:31 AM 42.5247 -77.0644 289° West 391 450 14,600 1,790 Climbing Cleveland Center
Thu 11:47:33 AM 42.5692 -77.2311 290° West 393 452 16,600 1,632 Climbing Cleveland Center
Thu 11:48:36 AM 42.6056 -77.3717 289° West 396 456 18,000 1,440 Climbing Cleveland Center
Thu 11:49:38 AM 42.6447 -77.5217 290° West 392 451 19,600 1,016 Climbing Cleveland Center
Thu 11:50:40 AM 42.6817 -77.6644 289° West 400 460 20,100 484 Climbing Cleveland Center
Thu 11:51:42 AM 42.7039 -77.8286 280° West 443 510 20,600 484 Climbing Cleveland Center
Thu 11:52:44 AM 42.7064 -77.9931 271° West 438 504 21,100 484 Climbing Cleveland Center
Thu 11:53:46 AM 42.7089 -78.1603 271° West 444 511 21,600 484 Climbing Cleveland Center
Thu 11:54:48 AM 42.7106 -78.3303 271° West 450 518 22,100 532 Climbing Cleveland Center
Thu 11:55:50 AM 42.7119 -78.4986 271° West 448 516 22,700 581 Climbing Cleveland Center
Thu 11:56:52 AM 42.7136 -78.7036 271° West 452 520 23,300 823 Climbing Cleveland Center
Thu 11:57:54 AM 42.7164 -78.8717 271° West 445 512 24,400 1,016 Climbing Cleveland Center
Thu 11:58:56 AM 42.7167 -79.0364 270° West 438 504 25,400 968 Climbing Cleveland Center
Thu 11:59:58 AM 42.7175 -79.1981 270° West 429 494 26,400 919 Climbing Cleveland Center
Thu 12:01:00 PM 42.7164 -79.3606 270° West 431 496 27,300 768 Climbing Cleveland Center
Thu 12:02:03 PM 42.7161 -79.5542 270° West 428 493 28,000 336 Climbing Cleveland Center
Thu 12:03:05 PM 42.7156 -79.7186 270° West 437 503 28,000  Level Cleveland Center
Thu 12:04:07 PM 42.7147 -79.8917 270° West 458 527 28,000  Level Cleveland Center
Thu 12:05:09 PM 42.7111 -80.0786 269° West 458 527 28,000  Level Cleveland Center
Thu 12:06:11 PM 42.7108 -80.2556 270° West 463 533 28,000  Level Cleveland Center
Thu 12:07:13 PM 42.7097 -80.4344 270° West 469 540 28,000  Level Cleveland Center
Thu 12:08:15 PM 42.7092 -80.6139 270° West 471 542 28,000 -97 Level Cleveland Center
Thu 12:09:17 PM 42.7083 -80.7939 270° West 476 548 27,800 -532 Descending Cleveland Center
Thu 12:10:19 PM 42.6961 -80.9703 265° West 470 541 26,900 -968 Descending Cleveland Center
Thu 12:11:21 PM 42.6722 -81.1792 261° West 475 547 25,800 -968 Descending Cleveland Center
Thu 12:12:23 PM 42.6536 -81.3492 262° West 455 524 24,900 -919 Descending Cleveland Center
Thu 12:13:25 PM 42.6364 -81.4958 261° West 400 460 23,900 -1,258 Descending Cleveland Center
Thu 12:14:27 PM 42.6206 -81.6378 261° West 382 440 22,300 -1,500 Descending Cleveland Center
Thu 12:15:29 PM 42.6044 -81.7758 261° West 371 427 20,800 -1,536 Descending Cleveland Center
Thu 12:16:32 PM 42.5853 -81.9256 260° West 359 413 19,100 -1,440 Descending Cleveland Center
Thu 12:17:34 PM 42.5692 -82.0536 260° West 349 402 17,800 -1,355 Descending Cleveland Center
Thu 12:18:36 PM 42.5550 -82.1764 261° West 335 386 16,300 -1,486 Descending Cleveland Center
Thu 12:19:23 PM 42.5428 -82.2822 261° West 327 376 15,100 -1,452 Descending Cleveland Center
Thu 12:19:38 PM 42.5389 -82.2983 252° West 330 380 14,800 -1,527 Descending Cleveland Center
Thu 12:20:18 PM 42.5289 -82.3936 262° West 322 371 13,700 -1,452 Descending Cleveland Center
Thu 12:20:40 PM 42.5247 -82.4172 257° West 324 373 13,300 -1,433 Descending Cleveland Center
Thu 12:21:25 PM 42.5114 -82.5244 260° West 319 367 12,100 -1,258 Descending Cleveland Center
Thu 12:21:42 PM 42.5086 -82.5342 249° West 320 368 12,000 -107 Descending Cleveland Center
Thu 12:22:21 PM 42.4794 -82.6219 246° West 314 361 12,000  Level Cleveland Center
Thu 12:22:44 PM 42.4647 -82.6619 243° Southwest 312 359 12,000 -885 Level Cleveland Center
Thu 12:23:22 PM 42.4583 -82.7408 264° West 323 372 11,100 -1,355 Descending Cleveland Center
Thu 12:23:46 PM 42.4525 -82.7783 258° West 314 361 10,600 -1,475 Descending Cleveland Center
Thu 12:24:23 PM 42.4458 -82.8553 263° West 302 348 9,600 -1,452 Descending Cleveland Center
Thu 12:24:48 PM 42.4406 -82.8914 259° West 306 352 9,100 -1,522 Descending Cleveland Center
Thu 12:25:30 PM 42.4328 -82.9750 263° West 283 326 7,900 -1,452 Descending Cleveland Center
Thu 12:25:50 PM 42.4300 -82.9964 260° West 291 335 7,600 -871 Descending Cleveland Center
Thu 12:26:32 PM 42.4233 -83.0728 263° West 253 291 7,000 -774 Descending Cleveland Center
Thu 12:26:52 PM 42.4203 -83.0883 255° West 260 299 6,800 -1,742 Descending Cleveland Center
Thu 12:27:34 PM 42.3958 -83.1594 245° Southwest 253 291 5,200 -1,619 Descending Cleveland Center
Thu 12:27:55 PM 42.3889 -83.1708 230° Southwest 259 298 5,100 -1,084 Descending Cleveland Center
Thu 12:28:57 PM 42.3458 -83.2425 231° Southwest 215 247 3,700 -1,389 Descending Cleveland Center
Thu 12:29:30 PM 42.3169 -83.2614 206° Southwest 179 206 2,900 -1,161 Descending Cleveland Center
Thu 12:29:59 PM 42.2994 -83.2717 203° Southwest 189 217 2,500 -806 Descending Cleveland Center
Thu 12:30:37 PM 42.2744 -83.2950 215° Southwest 156 180 2,000 -774 Descending Cleveland Center
Thu 12:31:01 PM 42.2617 -83.3011 199° South 162 186 1,700 -873 Descending Cleveland Center
Thu 12:31:32 PM 42.2389 -83.3211 213° Southwest 153 176 1,200 -871 Descending Cleveland Center
Thu 12:32:03 PM 42.2194 -83.3314 201° Southwest 156 180 800 -774 Descending Cleveland Center
Thu 12:34:00 PM 42.2000 -83.3500 236° Southwest  Level FlightAware Approximate
Thu 12:41:00 PM 42.2124 -83.3534 236° Southwest  Level Estimated

Login

Don't have an account? Register now (free) for customized features, flight alerts, and more!